Flag for Norway Weather past 2 weeks in Drøbak, Norway

Now
50 °F

Passing clouds.


Feels Like: 40 °F
Forecast: 49 / 60 °F
Wind: 47 mph from North

Location: Oslo / Fornebu

Current Time: Sep 5, 2015 at 6:40:39 AM

Latest Report: Sep 5, 2015 at 5:50 AM


Visibility: N/A

Pressure: 29.77 "Hg

Humidity: 82%

Dew point: 45 °F

Location of DrøbakLocation

Historic Weather in Drøbak — Graph

°F

Drøbak temperature yesterday

Maximum temperature yesterday: 54 °F (at 12:20 AM)
Minimum temperature yesterday: 50 °F (at 9:50 AM)
Average temperature yesterday: 52 °F

Past Weeks' High & Low Weather Summary

 TemperatureHumidityPressure
High70 °F (Aug 24, 5:20 AM)100% (Aug 21, 4:20 PM)30.15 "Hg (Aug 21, 4:20 PM)
Low50 °F (Sep 4, 9:50 AM)46% (Aug 23, 6:20 PM)29.33 "Hg (Aug 26, 11:50 PM)
Average57 °F85%29.82 "Hg
* Reported Aug 21 5:50 AM — Sep 5 5:20 AM, Drøbak, Weather by CustomWeather, © 2015

Note: Actual official high and low records may vary slightly from our data, if they occured in-between our weather recording intervals... More about our weather records

Advertising

Drøbak weather history for previous 24 hours

 ConditionsComfort  
Time TempWeatherWind HumidityBarometerVisibility
5:20 AM
Sat, Sep 5
50 °FSprinkles. Partly cloudy.48 mph82%29.80 "Hg3 mi
4:50 AM50 °FPassing clouds.46 mph82%29.80 "HgN/A
4:20 AM50 °FPassing clouds.46 mph82%29.80 "HgN/A
3:50 AM50 °FPassing clouds.46 mph82%29.80 "HgN/A
3:20 AM50 °FPassing clouds.47 mph82%29.80 "HgN/A
2:50 AM50 °FPassing clouds.41 mph82%29.80 "HgN/A
2:20 AM50 °FPassing clouds.43 mph76%29.80 "HgN/A
1:50 AM50 °FPassing clouds.43 mph76%29.80 "HgN/A
1:20 AM50 °FPassing clouds.41 mph76%29.80 "HgN/A
12:50 AM50 °FSprinkles. Partly cloudy.44 mph76%29.80 "HgN/A
12:20 AM50 °FSprinkles. Passing clouds.45 mph76%29.80 "HgN/A
11:20 PM
Fri, Sep 4
50 °FPartly cloudy.39 mph76%29.80 "HgN/A
10:50 PM50 °FPassing clouds.46 mph76%29.77 "HgN/A
10:20 PM52 °FPassing clouds.40 mph72%29.80 "HgN/A
9:50 PM52 °FPassing clouds.39 mph77%29.77 "HgN/A
9:20 PM50 °FPassing clouds.41 mph82%29.77 "HgN/A
8:50 PM50 °FSprinkles. Partly sunny.33 mph94%29.80 "HgN/A
8:20 PM52 °FPartly sunny.30 mph82%29.80 "HgN/A
7:50 PM52 °FPartly sunny.29 mph82%29.80 "HgN/A
7:20 PM52 °FPartly sunny.28 mph77%29.80 "HgN/A
6:50 PM52 °FPartly sunny.31 mph82%29.80 "HgN/A
6:20 PM52 °FLow clouds.30 mph88%29.80 "HgN/A
5:50 PM52 °FPartly sunny.32 mph94%29.80 "HgN/A
5:20 PM52 °FSprinkles. Fog.17 mph100%29.80 "Hg2 mi
4:50 PM52 °FPassing clouds.15 mph94%29.80 "HgN/A
4:20 PM52 °FSprinkles. Partly sunny.14 mph94%29.83 "HgN/A
3:50 PM52 °FOvercast.15 mph88%29.83 "HgN/A
3:20 PM52 °FPartly sunny.15 mph88%29.86 "HgN/A
2:50 PM52 °FPartly sunny.14 mph88%29.86 "HgN/A
2:20 PM52 °FPartly sunny.12 mph88%29.86 "HgN/A
1:50 PM54 °FScattered clouds.13 mph82%29.86 "HgN/A
1:20 PM52 °FOvercast.16 mph88%29.86 "HgN/A
12:50 PM52 °FOvercast.13 mph82%29.86 "HgN/A
12:20 PM52 °FPartly sunny.13 mph82%29.86 "HgN/A
11:50 AM52 °FPartly sunny.13 mph82%29.89 "HgN/A
11:20 AM52 °FPartly sunny.10 mph82%29.89 "HgN/A
10:50 AM52 °FBroken clouds.13 mph88%29.89 "HgN/A
10:20 AM52 °FPartly sunny.7 mph88%29.89 "HgN/A
9:50 AM50 °FPartly sunny.9 mph94%29.89 "HgN/A
9:20 AM52 °FPartly sunny.12 mph82%29.89 "HgN/A
8:50 AM52 °FBroken clouds.9 mph82%29.89 "HgN/A
8:20 AM52 °FOvercast.13 mph77%29.89 "HgN/A
7:50 AM52 °FOvercast.15 mph72%29.89 "HgN/A
7:20 AM52 °FOvercast.15 mph77%29.89 "HgN/A
6:50 AM52 °FOvercast.13 mph77%29.89 "HgN/A
6:20 AM52 °FPassing clouds.15 mph67%29.92 "HgN/A
Weather by CustomWeather, © 2015

See weather overviewHow to use our weather pages